DW5988 Weather Reports


time (UTC)temp
C
wind
direction
speed
KPH
gust
KPH
rain 1hr
cm
rain 24hr
cm
rain mn
cm
humidity
%
barometer
mb
20260507195804 18 340 29.0 33.8 0.00 0.00 0.00 28 1007.9
20260507194803 20 334 22.5 32.2 0.00 0.00 0.00 27 1008.0
20260507192306 20 324 19.3 38.6 0.00 0.00 0.00 26 1008.1
20260507185305 19 326 20.9 33.8 0.00 0.00 0.00 25 1007.9
20260507184803 18 346 19.3 25.7 0.00 0.00 0.00 26 1008.0
20260507183804 20 347 22.5 32.2 0.00 0.00 0.00 26 1007.9
20260507183303 19 316 20.9 33.8 0.00 0.00 0.00 26 1007.9
20260507182804 19 341 22.5 32.2 0.00 0.00 0.00 25 1008.0
20260507181804 18 326 17.7 32.2 0.00 0.00 0.00 26 1008.0
20260507180304 18 318 19.3 29.0 0.00 0.00 0.00 28 1008.0
20260507174304 18 325 19.3 33.8 0.00 0.00 0.00 30 1008.1
20260507173803 18 342 25.7 35.4 0.00 0.00 0.00 31 1008.1
20260507172804 18 325 17.7 25.7 0.00 0.00 0.00 33 1008.0
20260507171304 17 346 20.9 24.1 0.00 0.00 0.00 35 1008.3
20260507170803 17 325 17.7 25.7 0.00 0.00 0.00 35 1008.3
20260507170305 17 337 16.1 24.1 0.00 0.00 0.00 36 1008.4
20260507164803 17 322 12.9 24.1 0.00 0.00 0.00 37 1008.4
20260507163303 16 339 17.7 27.4 0.00 0.00 0.00 40 1008.4
20260507162307 16 351 20.9 27.4 0.00 0.00 0.00 41 1008.5
20260507161804 16 354 16.1 24.1 0.00 0.00 0.00 42 1008.5
20260507154803 15 300 19.3 32.2 0.00 0.00 0.00 44 1008.8
20260507154304 15 325 14.5 33.8 0.00 0.00 0.00 44 1008.8
20260507153804 15 288 24.1 35.4 0.00 0.00 0.00 43 1008.8
20260507153304 15 297 20.9 27.4 0.00 0.00 0.00 44 1008.8
20260507152804 15 316 16.1 29.0 0.00 0.00 0.00 47 1008.8
20260507151803 14 312 16.1 27.4 0.00 0.00 0.00 49 1008.9
20260507151304 13 281 24.1 24.1 0.00 0.00 0.00 54 1008.6
20260507150304 13 291 22.5 38.6 0.00 0.00 0.00 55 1008.6
20260507145804 13 290 22.5 32.2 0.00 0.00 0.00 59 1008.5
20260507144804 11 279 19.3 27.4 0.00 0.00 0.00 63 1008.5
20260507144304 11 269 19.3 24.1 0.00 0.00 0.00 63 1008.4
20260507143803 11 274 17.7 25.7 0.00 0.00 0.00 63 1008.3
20260507142803 11 278 16.1 24.1 0.00 0.00 0.00 64 1008.3
20260507141804 10 277 16.1 22.5 0.00 0.00 0.00 66 1008.1
20260507141304 10 271 16.1 27.4 0.00 0.00 0.00 66 1008.1
20260507140804 10 267 19.3 29.0 0.00 0.00 0.00 67 1008.2
20260507135804 10 269 19.3 27.4 0.00 0.00 0.00 67 1008.0
20260507133803 10 269 14.5 25.7 0.00 0.00 0.00 69 1008.0
20260507133304 10 265 14.5 20.9 0.00 0.00 0.00 69 1008.1
20260507132804 10 281 16.1 25.7 0.00 0.00 0.00 69 1008.1
20260507132307 10 274 16.1 27.4 0.00 0.00 0.00 70 1008.1
20260507131804 10 276 17.7 22.5 0.00 0.00 0.00 70 1008.0
20260507131304 10 265 16.1 22.5 0.00 0.00 0.00 70 1008.0
20260507130304 9 269 14.5 20.9 0.00 0.00 0.00 72 1008.0
20260507125803 9 263 16.1 19.3 0.00 0.00 0.00 73 1007.8
20260507125306 9 265 12.9 19.3 0.00 0.00 0.00 73 1007.7
20260507123804 8 262 14.5 20.9 0.00 0.00 0.00 74 1007.8
20260507120804 8 291 8.0 12.9 0.00 0.00 0.00 74 1007.9
20260507120304 8 291 9.7 12.9 0.00 0.00 0.00 74 1007.9
20260507115804 8 282 12.9 16.1 0.00 0.00 0.00 75 1007.8
20260507115307 7 282 11.3 16.1 0.00 0.00 0.00 75 1007.7
20260507114803 7 277 9.7 11.3 0.00 0.00 0.00 74 1007.7
20260507111804 8 301 4.8 12.9 0.00 0.00 0.00 72 1007.7
20260507111304 8 283 11.3 14.5 0.00 0.00 0.00 73 1007.7
20260507110803 8 273 12.9 16.1 0.00 0.00 0.00 73 1007.6
20260507110304 8 278 11.3 14.5 0.00 0.00 0.00 73 1007.7
20260507105306 7 285 11.3 14.5 0.00 0.00 0.00 73 1007.6
20260507104804 7 271 9.7 14.5 0.00 0.00 0.00 73 1007.6
20260507103804 6 268 9.7 12.9 0.00 0.00 0.00 72 1007.6
20260507103304 6 276 6.4 11.3 0.00 0.00 0.00 70 1007.5
20260507102804 6 278 4.8 9.7 0.00 0.00 0.00 69 1007.5
20260507102306 6 277 3.2 4.8 0.00 0.00 0.00 69 1007.6
20260507101804 6 277 1.6 3.2 0.00 0.00 0.00 67 1007.7
20260507101304 6 276 1.6 3.2 0.00 0.00 0.00 67 1007.7
20260507095803 6 275 3.2 4.8 0.00 0.00 0.00 68 1007.6
20260507095306 6 267 1.6 4.8 0.00 0.00 0.00 67 1007.6
20260507093304 5 215 0.0 3.2 0.00 0.00 0.00 62 1007.7
20260507092804 5 215 3.2 3.2 0.00 0.00 0.00 61 1007.6
20260507092307 5 215 1.6 4.8 0.00 0.00 0.00 60 1007.6
20260507091804 5 215 1.6 3.2 0.00 0.00 0.00 60 1007.6
20260507090803 5 215 8.0 9.7 0.00 0.00 0.00 60 1007.5
20260507090304 5 219 4.8 9.7 0.00 0.00 0.00 62 1007.5
20260507085803 4 227 8.0 9.7 0.00 0.00 0.00 64 1007.4
20260507085306 4 219 4.8 9.7 0.00 0.00 0.00 65 1007.4
20260507084803 4 189 8.0 9.7 0.00 0.00 0.00 65 1007.4
20260507083303 5 181 4.8 9.7 0.00 0.00 0.00 64 1007.5
20260507080304 6 158 4.8 11.3 0.00 0.00 0.00 62 1007.3
20260507074803 6 157 8.0 9.7 0.00 0.00 0.00 61 1007.2
20260507073803 6 128 4.8 4.8 0.00 0.00 0.00 58 1007.5
20260507072307 7 3 0.0 8.0 0.00 0.00 0.00 55 1007.7
20260507071805 7 158 8.0 8.0 0.00 0.00 0.00 55 1007.4
20260507064804 8 157 9.7 16.1 0.00 0.00 0.00 48 1007.6
20260507064304 8 153 11.3 19.3 0.00 0.00 0.00 47 1007.6
20260507062803 7 115 3.2 4.8 0.00 0.00 0.00 57 1007.9
20260507061803 8 104 3.2 4.8 0.00 0.00 0.00 55 1008.0
20260507060825 7 104 3.2 4.8 0.00 0.00 0.00 55 1008.0
20260507055804 7 104 1.6 4.8 0.00 0.00 0.00 59 1007.9
20260507055306 7 104 3.2 4.8 0.00 0.00 0.00 57 1007.8
20260507054804 7 104 1.6 4.8 0.00 0.00 0.00 55 1007.7
20260507053804 8 104 1.6 4.8 0.00 0.00 0.00 55 1007.7
20260507053303 8 104 1.6 3.2 0.00 0.00 0.00 55 1007.7
20260507051303 8 137 8.0 8.0 0.00 0.00 0.00 56 1007.3
20260507050304 8 137 3.2 4.8 0.00 0.00 0.00 57 1007.4
20260507045306 8 137 4.8 8.0 0.00 0.00 0.00 55 1007.1
20260507044803 8 137 3.2 4.8 0.00 0.00 0.00 55 1007.0
20260507044304 8 137 4.8 11.3 0.00 0.00 0.00 54 1007.0
20260507043304 9 138 8.0 8.0 0.00 0.00 0.00 52 1007.0
20260507041303 9 121 9.7 12.9 0.00 0.00 0.00 52 1006.9
20260507040804 9 103 4.8 9.7 0.00 0.00 0.00 53 1006.9
20260507040304 10 103 6.4 9.7 0.00 0.00 0.00 53 1006.9
20260507035803 10 103 4.8 12.9 0.00 0.00 0.00 52 1006.8
20260507034304 11 146 8.0 16.1 0.00 0.00 0.00 48 1006.5
20260507033804 10 168 11.3 19.3 0.00 0.00 0.00 47 1006.4
20260507033303 10 170 11.3 14.5 0.00 0.00 0.00 49 1006.5
20260507032306 11 162 6.4 9.7 0.00 0.00 0.00 46 1006.7
20260507030803 11 110 9.7 11.3 0.00 0.00 0.00 41 1007.0
20260507030304 11 101 6.4 9.7 0.00 0.00 0.00 41 1006.9
20260507025804 12 99 8.0 11.3 0.00 0.00 0.00 41 1006.7
20260507024803 12 98 3.2 4.8 0.00 0.00 0.00 41 1006.7
20260507023803 12 102 9.7 12.9 0.00 0.00 0.00 39 1006.4
20260507022804 12 103 9.7 14.5 0.00 0.00 0.00 39 1006.5
20260507021804 13 102 9.7 12.9 0.00 0.00 0.00 38 1006.2
20260507021303 13 105 6.4 11.3 0.00 0.00 0.00 38 1006.1
20260507020804 13 90 6.4 11.3 0.00 0.00 0.00 37 1006.2
20260507013303 15 105 9.7 12.9 0.00 0.00 0.00 33 1006.1
20260507012306 15 108 14.5 19.3 0.00 0.00 0.00 32 1005.9
20260507011804 15 110 11.3 16.1 0.00 0.00 0.00 32 1006.1
20260507011304 15 107 14.5 19.3 0.00 0.00 0.00 31 1006.1
20260507010804 15 113 12.9 19.3 0.00 0.00 0.00 32 1006.0
20260507010304 15 117 14.5 19.3 0.00 0.00 0.00 31 1006.0
20260507003304 15 100 9.7 19.3 0.00 0.00 0.00 31 1005.8
20260507001304 16 111 16.1 24.1 0.00 0.00 0.00 30 1005.8
20260507000804 16 107 16.1 22.5 0.00 0.00 0.00 29 1005.9
20260507000306 16 91 6.4 12.9 0.00 0.00 0.00 29 1005.9
20260506235804 16 138 8.0 19.3 0.00 0.00 0.00 29 1005.8
20260506234305 16 117 8.0 19.3 0.00 0.00 0.00 29 1005.7
20260506233803 16 96 8.0 16.1 0.00 0.00 0.00 29 1005.8
20260506233304 16 111 16.1 20.9 0.00 0.00 0.00 29 1005.8
20260506232306 16 80 6.4 16.1 0.00 0.00 0.00 29 1006.0
20260506230304 16 113 11.3 16.1 0.00 0.00 0.00 29 1006.4
20260506225305 16 118 14.5 20.9 0.00 0.00 0.00 29 1006.3
20260506222803 16 109 8.0 19.3 0.00 0.00 0.00 28 1006.6
20260506221303 17 139 4.8 20.9 0.00 0.00 0.00 27 1006.7
20260506220803 17 134 9.7 16.1 0.00 0.00 0.00 27 1006.7
20260506214804 17 147 6.4 12.9 0.00 0.00 0.00 27 1007.0
20260506214304 16 160 9.7 14.5 0.00 0.00 0.00 28 1007.2
20260506212803 16 170 11.3 22.5 0.00 0.00 0.00 28 1007.3
20260506205306 15 161 11.3 29.0 0.00 0.00 0.00 28 1007.6
20260506204804 15 158 14.5 24.1 0.00 0.00 0.00 29 1007.6
20260506204304 15 108 14.5 35.4 0.00 0.00 0.00 28 1007.7
20260506202804 15 157 16.1 32.2 0.00 0.00 0.00 28 1007.8
20260506201304 15 149 14.5 20.9 0.00 0.00 0.00 29 1008.1
20260506200804 15 101 11.3 16.1 0.00 0.00 0.00 28 1008.1